Tracking 30995 objects as of 7-Jul-2025
HD Live streaming from Space Station
objects crossing your sky now

ASTROCAST-0101

Track ASTROCAST-0101 now!
10-day predictions
ASTROCAST-0101 is classified as:


NORAD ID: 47430
Int'l Code: 2021-006T
Perigee: 432.9 km
Apogee: 437.4 km
Inclination: 97.3 °
Period: 93.1 minutes
Semi major axis: 6806 km
RCS: Unknown
Launch date: January 24, 2021
Source: (SWTZ)
Launch site: AIR FORCE EASTERN TEST RANGE (AFETR)

Uplink (MHz):
Downlink (MHz):
Beacon (MHz):
Mode:
Call sign:
Status: Unknown

Your satellite tracking list
Your tracking list is empty




NASA's NSSDC Master Catalog

Two Line Element Set (TLE):
1 47430U 21006T   25187.57638015  .00017149  00000-0  35131-3 0  9993
2 47430  97.2878 244.4303 0003332 329.0921  31.0132 15.46142690246121
Source of the keplerian elements: AFSPC